User: anonymous   Login
Location: Caltech
(34.1382°N, 118.1253°W)
Time: 22:12:07
(UTC-07:00)
Language:

CZ-2C R/B - Orbit

View from above orbital plane
View from above orbital plane
View from above satellite
View from above satellite

Ground track
Ground track

The orbit data is extracted from the following two-line orbital elements,

1 36089U 09061B   17115.91445795 -.00000010 +00000-0 +87673-5 0  9999
2 36089 098.0522 120.0346 0081464 205.8953 212.7409 14.49655681394049
Epoch (UTC): 25 April 2017 21:56:49
Eccentricity: 0.0081464
inclination: 98.0522°
perigee height: 669 km
apogee height: 784 km
right ascension of ascending node: 120.0346°
argument of perigee: 205.8953°
revolutions per day: 14.49655681
mean anomaly at epoch: 212.7409°
orbit number at epoch: 39404

The dashed part of the orbit path shows where the satellite is in the earth's shadow,  

DLR